Paynesville, MN

3:38 PM CDT on April 25, 2017 (GMT -0500)
Paynesville

Weather History for KPEX - November, 2013

Change the Weather History Date:

Friday, November 22, 2013

  Actual Average (KLJF) Record (KLJF)
Temperature  
Mean Temperature 18 °F -  
Max Temperature 31 °F 35 °F 55 °F (1998)
Min Temperature 4 °F 20 °F 1 °F (1996)
Degree Days  
Heating Degree Days 48    
Moisture  
Dew Point 5 °F    
Average Humidity 66    
Maximum Humidity 89    
Minimum Humidity 30    
Precipitation  
Precipitation 0.00 in - - ()
Sea Level Pressure  
Sea Level Pressure 30.54 in    
Wind  
Wind Speed 8 mph (WNW)    
Max Wind Speed 22 mph    
Max Gust Speed 28 mph    
Visibility 10 miles    
Events Snow    
Averages and records for this station are not official NWS values.
T = Trace of Precipitation, MM = Missing Value Source: NWS Daily Summary

Daily Weather History Graph

Daily Weather History Graph

Search for Another Location

Airport or City:

Trip Planner

Search our weather history database for the weather conditions in past years. The results will help you decide how hot, cold, wet, or windy it might be!

Date:

Astronomy

Nov. 22, 2013 Rise Set
Actual Time 7:27 AM CST 4:42 PM CST
Civil Twilight 6:54 AM CST 5:15 PM CST
Nautical Twilight 6:18 AM CST 5:51 PM CST
Astronomical Twilight 5:43 AM CST 6:26 PM CST
Moon 9:19 PM CST (11/22) 11:08 AM CST (11/22)
Length of Visible Light 10h 20m
Length of Day
9h 15m
Waning Gibbous, 78% of the Moon is Illuminated
Nov 22
Waning Gibbous
Nov 25
Last Quarter
Dec 2
New
Dec 9
First Quarter
Dec 17
Full

Hourly Weather History & Observations

Time (CST) Temp. Windchill Dew Point Humidity Pressure Visibility Wind Dir Wind Speed Gust Speed Precip Events Conditions
12:13 AM 16.7 °F 7.2 °F 8.6 °F 70% 30.55 in 10.0 mi NW 6.9 mph - N/A   Clear
12:33 AM 15.8 °F 6.1 °F 7.7 °F 70% 30.55 in 10.0 mi NW 6.9 mph - N/A   Clear
12:53 AM 16.2 °F 6.5 °F 8.2 °F 71% 30.56 in 10.0 mi NW 6.9 mph - N/A   Clear
1:13 AM 15.8 °F 6.1 °F 7.7 °F 70% 30.56 in 10.0 mi NW 6.9 mph - N/A   Clear
1:32 AM 14.9 °F 7.5 °F 7.0 °F 71% 30.56 in 10.0 mi WNW 4.6 mph - N/A   Clear
1:53 AM 14.0 °F 6.5 °F 6.8 °F 73% 30.55 in 10.0 mi WNW 4.6 mph - N/A   Clear
2:13 AM 13.3 °F 7.3 °F 7.3 °F 77% 30.56 in 10.0 mi WNW 3.5 mph - N/A   Clear
2:33 AM 12.6 °F 4.8 °F 7.7 °F 81% 30.57 in 10.0 mi WNW 4.6 mph - N/A   Clear
2:53 AM 10.9 °F 4.7 °F 7.3 °F 85% 30.56 in 10.0 mi West 3.5 mph - N/A   Clear
3:12 AM 10.0 °F 3.6 °F 6.6 °F 86% 30.56 in 10.0 mi West 3.5 mph - N/A   Clear
3:33 AM 9.3 °F 1.0 °F 6.3 °F 87% 30.55 in 10.0 mi West 4.6 mph - N/A   Clear
3:53 AM 7.7 °F -0.9 °F 5.2 °F 89% 30.55 in 10.0 mi West 4.6 mph - N/A   Clear
4:13 AM 7.7 °F 1.0 °F 5.2 °F 89% 30.55 in 10.0 mi West 3.5 mph - N/A   Clear
4:32 AM 7.3 °F 0.5 °F 4.8 °F 89% 30.55 in 10.0 mi West 3.5 mph - N/A   Clear
4:53 AM 6.4 °F - 3.9 °F 89% 30.54 in 10.0 mi Calm Calm - N/A Snow Light Snow
5:13 AM 6.1 °F -0.9 °F 3.4 °F 89% 30.54 in 10.0 mi WSW 3.5 mph - N/A   Clear
5:33 AM 4.6 °F -7.4 °F 1.9 °F 89% 30.56 in 10.0 mi West 6.9 mph - N/A   Clear
5:53 AM 5.0 °F -5.6 °F 2.1 °F 88% 30.57 in 10.0 mi West 5.8 mph - N/A   Clear
6:12 AM 5.4 °F -1.7 °F 2.8 °F 89% 30.57 in 10.0 mi WSW 3.5 mph - N/A   Clear
6:33 AM 5.7 °F - 2.8 °F 88% 30.54 in 10.0 mi Calm Calm - N/A   Clear
6:53 AM 5.5 °F - 2.3 °F 86% 30.55 in 10.0 mi Calm Calm - N/A   Clear
7:13 AM 5.9 °F -3.0 °F 2.7 °F 87% 30.55 in 10.0 mi WSW 4.6 mph - N/A   Clear
7:33 AM 4.1 °F -3.2 °F 1.0 °F 87% 30.55 in 10.0 mi WSW 3.5 mph - N/A   Clear
7:52 AM 5.4 °F -3.6 °F 2.5 °F 88% 30.55 in 10.0 mi SW 4.6 mph - N/A   Clear
8:13 AM 8.6 °F - 5.4 °F 87% 30.54 in 10.0 mi Calm Calm - N/A   Clear
8:33 AM 10.6 °F 2.5 °F 5.5 °F 80% 30.54 in 10.0 mi SW 4.6 mph - N/A   Clear
8:52 AM 13.1 °F 4.0 °F 4.8 °F 70% 30.53 in 10.0 mi SSW 5.8 mph - N/A   Clear
9:12 AM 14.4 °F 4.3 °F 4.5 °F 65% 30.53 in 10.0 mi SSW 6.9 mph - N/A   Clear
9:32 AM 16.5 °F 5.1 °F 6.4 °F 65% 30.52 in 10.0 mi SSW 9.2 mph - N/A   Clear
9:53 AM 18.3 °F 7.3 °F 7.5 °F 63% 30.50 in 10.0 mi SSW 9.2 mph - N/A   Clear
10:12 AM 19.8 °F 9.1 °F 7.7 °F 60% 30.50 in 10.0 mi SSW 9.2 mph - N/A   Clear
10:33 AM 21.6 °F 10.6 °F 6.6 °F 53% 30.50 in 10.0 mi SSW 10.4 mph - N/A   Clear
10:53 AM 23.5 °F 13.7 °F 7.2 °F 50% 30.49 in 10.0 mi SSW 9.2 mph - N/A   Clear
11:13 AM 26.2 °F 13.8 °F 4.1 °F 39% 30.49 in 10.0 mi SW 16.1 mph 19.6 mph N/A   Clear
11:33 AM 26.8 °F 14.9 °F 3.2 °F 36% 30.48 in 10.0 mi WSW 15.0 mph 21.9 mph N/A   Clear
11:52 AM 28.0 °F 17.0 °F 3.6 °F 35% 30.48 in 10.0 mi WSW 13.8 mph 20.7 mph N/A   Clear
12:12 PM 29.1 °F 16.7 °F 1.9 °F 31% 30.47 in 10.0 mi SW 18.4 mph 24.2 mph N/A   Clear
12:33 PM 29.7 °F 16.4 °F 1.8 °F 30% 30.47 in 10.0 mi WSW 21.9 mph 27.6 mph N/A   Clear
12:52 PM 29.8 °F 17.0 °F 2.1 °F 31% 30.47 in 10.0 mi West 20.7 mph - N/A   Clear
1:12 PM 30.0 °F 17.9 °F 3.0 °F 32% 30.46 in 10.0 mi West 18.4 mph 26.5 mph N/A   Clear
1:33 PM 30.4 °F 18.7 °F 3.6 °F 32% 30.46 in 10.0 mi West 17.3 mph 23.0 mph N/A   Clear
1:53 PM 30.7 °F 19.6 °F 5.5 °F 35% 30.46 in 10.0 mi West 16.1 mph 25.3 mph N/A   Clear
2:13 PM 31.1 °F 21.4 °F 7.5 °F 37% 30.45 in 10.0 mi West 12.7 mph - N/A   Clear
2:32 PM 30.7 °F 19.6 °F 9.0 °F 40% 30.45 in 10.0 mi West 16.1 mph - N/A   Clear
2:53 PM 30.0 °F 17.9 °F 7.3 °F 38% 30.45 in 10.0 mi WNW 18.4 mph 26.5 mph N/A   Clear
3:13 PM 28.4 °F 16.2 °F 9.0 °F 44% 30.46 in 10.0 mi WNW 17.3 mph 24.2 mph N/A   Clear
3:33 PM 27.0 °F 16.1 °F 9.1 °F 47% 30.47 in 10.0 mi WNW 12.7 mph 20.7 mph N/A   Clear
3:52 PM 25.7 °F 13.1 °F 10.0 °F 52% 30.48 in 10.0 mi WNW 16.1 mph 21.9 mph N/A   Clear
4:13 PM 24.6 °F 13.2 °F 10.0 °F 54% 30.49 in 10.0 mi WNW 12.7 mph 20.7 mph N/A   Clear
4:33 PM 23.5 °F 13.0 °F 10.4 °F 57% 30.50 in 10.0 mi WNW 10.4 mph - N/A   Clear
4:52 PM 23.0 °F 10.6 °F 11.8 °F 62% 30.50 in 10.0 mi NW 13.8 mph 17.3 mph N/A   Clear
5:13 PM 22.8 °F 10.9 °F 14.0 °F 69% 30.51 in 10.0 mi NW 12.7 mph 20.7 mph N/A Snow Light Snow
5:33 PM 21.2 °F 6.8 °F 14.4 °F 75% 30.52 in 7.0 mi NW 17.3 mph 24.2 mph N/A Snow Light Snow
5:52 PM 20.3 °F 6.6 °F 13.8 °F 76% 30.52 in 10.0 mi NW 15.0 mph 20.7 mph N/A   Mostly Cloudy
6:13 PM 20.1 °F 6.4 °F 11.8 °F 70% 30.54 in 10.0 mi WNW 15.0 mph 19.6 mph N/A   Mostly Cloudy
6:33 PM 19.4 °F 6.6 °F 10.6 °F 69% 30.54 in 10.0 mi WNW 12.7 mph 21.9 mph N/A   Scattered Clouds
6:52 PM 18.7 °F 5.7 °F 9.5 °F 67% 30.55 in 10.0 mi WNW 12.7 mph 18.4 mph N/A   Scattered Clouds
7:13 PM 16.7 °F 2.0 °F 6.8 °F 65% 30.56 in 10.0 mi NW 15.0 mph 24.2 mph N/A   Scattered Clouds
7:32 PM 14.9 °F -1.8 °F 3.4 °F 60% 30.58 in 10.0 mi NW 18.4 mph 26.5 mph N/A   Clear
7:52 PM 13.6 °F -1.3 °F 2.1 °F 60% 30.59 in 10.0 mi NW 13.8 mph 23.0 mph N/A   Clear
8:13 PM 12.7 °F -2.5 °F 1.0 °F 60% 30.60 in 10.0 mi NW 13.8 mph 24.2 mph N/A   Clear
8:33 PM 12.0 °F -4.5 °F 0.5 °F 60% 30.61 in 10.0 mi NNW 16.1 mph 26.5 mph N/A   Clear
8:53 PM 11.3 °F -2.2 °F 0.9 °F 63% 30.62 in 10.0 mi NW 10.4 mph - N/A   Clear
9:13 PM 10.2 °F -5.7 °F 1.4 °F 68% 30.62 in 10.0 mi NW 13.8 mph 19.6 mph N/A   Clear
9:32 PM 9.5 °F -5.9 °F 1.4 °F 70% 30.63 in 10.0 mi NW 12.7 mph 19.6 mph N/A   Clear
9:53 PM 8.8 °F -9.8 °F 0.9 °F 70% 30.63 in 10.0 mi NW 18.4 mph 26.5 mph N/A   Clear
10:12 PM 8.4 °F -10.3 °F 1.0 °F 72% 30.63 in 10.0 mi NW 18.4 mph 23.0 mph N/A   Clear
10:33 PM 7.9 °F -8.0 °F 1.2 °F 74% 30.65 in 10.0 mi NNW 12.7 mph - N/A   Clear
10:53 PM 7.2 °F -8.1 °F 0.5 °F 74% 30.65 in 10.0 mi NNW 11.5 mph 17.3 mph N/A   Clear
11:12 PM 6.8 °F -9.3 °F 0.5 °F 75% 30.65 in 10.0 mi NNW 12.7 mph 20.7 mph N/A   Clear
11:33 PM 6.3 °F -10.7 °F 0.1 °F 76% 30.67 in 10.0 mi NW 13.8 mph 17.3 mph N/A   Clear
11:52 PM 5.9 °F -8.9 °F 0.1 °F 77% 30.68 in 10.0 mi NNW 10.4 mph - N/A   Clear